Portada
METAR-TAF:

METAR-TAF

Aeroports :

Aeroport de Uíge

Uíge, Angola

latitud: 7-36-10S, longitud: 15-1-40E, altitud: 829 m

Observació

L'informe es va fer fa 1 hora i 7 minuts, a les 08:00 UTC
Vent 6 kt del Nord
Temperatura 20°C
Humitat 88%
Pressió 1016 hPa
Visibilitat: 8000 m
Núvols disperses a una alçada de 1700 ft
Cel ennuvolat a una alçada de 7000 ft

METAR: FNUG 300800Z 36006KT 8000 SCT017 BKN070 20/18 Q1016

Hora: 10:07 (09:07 UTC)


TAF: manca

Observacions i pronòstics meteorològics de més de 4000 aeroports (METAR i TAF).

Les estacions disponibles són els punts grocs i vermells al mapa.

Posi el ratolí al punt desitjat per veure el nom de l'estació.

Feu clic per veure les observacions i els pronòstics meteorològics.

Per canviar el mapa: feu clic els botons verds amb una creu de color negre per apropar; al botó verd amb un guió per allunyar la imatge; o en les fletxes verdes per a mapes adjacents.


METAR-TAF: